Location: Unspecified
(33.6682°S, 0.0000°E)
Time: 05:18:58
(UTC+00:00)

Explorer 11/Cluster Stage 4 - Visible Passes

Search period start: 19 June 2019 00:00
Search period end: 29 June 2019 00:00
Orbit: 467 x 1260 km, 28.8° (Epoch: 17 June)

Date Brightness Start Highest point End Pass type
(mag) Time Alt. Az. Time Alt. Az. Time Alt. Az.
19 Jun 7.3 04:30:43 54° N 04:30:51 54° N 04:36:39 10° E visible
19 Jun 7.3 06:13:14 10° W 06:19:28 49° N 06:24:26 10° ENE visible
20 Jun 7.4 04:20:44 55° NNE 04:20:44 55° NNE 04:26:12 10° E visible
20 Jun 7.4 06:02:53 12° W 06:08:49 48° NNW 06:13:58 10° ENE visible
21 Jun 7.7 04:10:42 51° NE 04:10:42 51° NE 04:15:44 10° E visible
21 Jun 7.5 05:52:51 15° W 05:58:10 47° NNW 06:03:29 10° ENE visible
22 Jun 7.9 04:00:40 45° NE 04:00:40 45° NE 04:05:14 10° ENE visible
22 Jun 7.6 05:42:48 19° WNW 05:47:29 45° NNW 05:52:58 10° NE visible
23 Jun 8.2 03:50:36 39° ENE 03:50:36 39° ENE 03:54:42 10° ENE visible
23 Jun 7.7 05:32:44 23° WNW 05:36:45 43° NNW 05:42:25 10° NE visible
24 Jun 8.5 03:40:32 33° ENE 03:40:32 33° ENE 03:44:07 10° ENE visible
24 Jun 7.8 05:22:40 26° WNW 05:26:00 40° NNW 05:31:48 10° NE visible
25 Jun 8.8 03:30:28 28° ENE 03:30:28 28° ENE 03:33:32 10° ENE visible
25 Jun 8.0 05:12:36 29° WNW 05:15:14 38° NNW 05:21:09 10° NE visible
26 Jun 9.1 03:20:25 23° ENE 03:20:25 23° ENE 03:22:54 10° ENE visible
26 Jun 8.1 05:02:33 31° NW 05:04:25 35° NNW 05:10:27 10° NE visible
27 Jun 9.4 03:10:23 19° ENE 03:10:23 19° ENE 03:12:14 10° ENE visible
27 Jun 8.2 04:52:31 32° NW 04:53:36 33° NNW 04:59:41 10° NE visible
27 Jun 9.2 06:40:23 10° NW 06:41:31 10° NW 06:42:38 10° NNW visible
28 Jun 9.6 03:00:22 15° ENE 03:00:22 15° ENE 03:01:31 10° ENE visible
28 Jun 8.3 04:42:31 30° NNW 04:42:45 30° NNW 04:48:51 10° NNE visible
